Theta_e
335 336 337 338 338 339 339 340 341 341 342 344 345 345 347 349 351 354 353 354 353 352 353 354 355 353 352 352 353 354 354 354 354 354 354 354 355 356 355 356 354 355 354 356 356 356 357 358 357 358 359 361 361 362 362 362 361 361 360 360 359 359 357
333 334 335 337 337 339 340 341 341 341 342 344 345 345 347 349 351 353 354 354 354 354 354 354 355 355 353 353 353 354 354 354 355 355 355 354 355 356 357 356 356 355 356 355 357 358 359 359 358 358 360 361 361 362 363 361 361 360 359 360 359 357 356
331 333 334 336 337 338 340 341 341 341 343 345 345 345 345 347 350 353 355 355 355 355 355 355 355 355 355 354 353 353 354 354 354 354 354 354 354 355 357 357 357 356 357 358 357 358 361 360 358 358 360 361 361 361 362 362 361 361 359 360 359 359 356
330 331 332 336 338 339 339 341 341 341 343 345 346 346 345 347 349 353 356 356 355 355 355 355 356 356 356 354 353 353 354 354 354 354 355 355 355 355 355 357 358 358 357 358 359 359 360 360 358 357 362 360 360 361 361 362 361 360 360 360 358 359 358
330 331 332 334 336 337 338 339 340 341 342 345 346 347 346 347 351 353 356 358 357 356 357 357 357 357 357 356 355 354 354 354 354 355 355 355 356 355 353 355 358 358 359 360 360 360 358 358 358 358 358 359 359 360 360 361 361 360 360 361 358 358 359
329 330 331 333 334 336 337 338 340 341 342 344 345 346 346 347 351 353 355 357 358 358 358 358 357 357 356 356 356 355 355 355 355 355 355 355 355 354 353 353 357 359 359 360 360 360 360 358 358 358 359 358 359 359 360 360 361 361 360 362 359 359 358
328 331 331 332 334 335 337 338 339 341 342 344 346 347 348 348 350 353 355 357 358 357 357 357 357 357 357 357 356 356 354 354 354 354 355 355 355 355 354 353 354 357 360 361 360 359 359 358 358 357 358 359 359 359 360 360 360 362 361 361 360 359 359
327 331 331 332 333 334 337 338 339 340 341 342 344 348 348 349 351 352 354 357 359 359 358 357 357 357 357 357 357 355 355 354 354 355 356 355 355 355 355 354 354 355 358 359 360 359 357 358 358 358 356 359 359 359 360 360 360 361 362 361 360 359 360
328 330 332 333 333 333 335 338 339 340 340 342 344 348 350 351 352 353 355 356 358 359 359 359 358 358 358 358 357 356 355 355 354 355 355 355 355 355 355 355 354 355 355 357 360 360 358 356 358 358 357 356 358 359 359 360 360 361 362 361 360 359 358
328 326 332 333 333 333 334 337 339 340 340 342 343 345 349 351 352 353 354 356 358 359 360 360 360 359 358 358 358 357 356 355 355 354 355 355 355 355 355 355 355 355 355 356 358 359 359 356 355 358 358 356 356 357 358 360 360 360 361 361 361 359 357
327 326 331 332 332 333 334 335 337 339 341 341 342 346 349 350 351 352 353 355 358 359 361 362 362 360 359 358 358 358 356 355 355 354 354 354 355 355 355 356 355 355 355 356 356 358 359 358 356 355 358 358 356 356 356 358 360 359 359 360 361 360 359
326 326 328 331 331 332 333 334 337 340 342 343 345 348 351 352 352 352 352 353 358 360 361 362 363 361 359 359 358 358 357 356 355 354 354 354 354 354 355 355 356 356 356 356 356 357 358 358 357 354 355 358 358 358 357 358 359 359 359 359 360 360 359
326 326 325 328 331 332 334 337 340 343 345 346 345 345 350 352 352 352 352 352 355 360 362 363 363 362 360 359 358 357 357 356 355 355 355 354 354 354 354 354 354 356 356 357 357 356 357 358 358 357 354 356 359 359 359 358 359 360 359 359 359 359 359
335 325 326 325 331 333 336 337 340 342 343 344 344 345 349 353 353 353 352 352 354 358 361 363 363 362 361 360 358 357 357 356 356 356 356 355 354 353 353 353 353 354 356 357 356 355 356 357 358 358 357 355 356 359 360 360 359 359 359 358 358 359 358
325 327 332 334 331 334 336 335 337 339 340 342 344 346 351 353 353 353 353 354 354 356 359 362 362 361 361 359 358 357 356 356 356 356 356 356 354 353 353 353 352 353 355 356 355 356 355 357 358 357 357 357 357 357 359 361 360 359 359 358 357 358 358
330 335 337 335 334 335 335 336 336 336 338 340 343 346 352 353 353 353 354 354 354 355 357 360 360 360 360 359 358 357 356 356 356 356 356 356 355 354 353 353 353 352 353 356 356 355 355 355 356 357 357 357 358 358 358 359 361 352 339 344 357 357 358
327 331 336 338 338 338 339 341 341 340 340 343 345 347 350 352 353 354 355 355 355 355 356 358 359 360 359 359 359 358 357 356 356 356 355 355 356 355 353 352 353 352 352 354 356 356 355 355 354 356 357 357 358 358 358 359 359 340 333 335 340 354 357
322 325 333 337 340 343 344 346 347 345 343 345 348 348 349 350 352 354 354 355 356 356 357 357 358 358 358 359 359 359 358 357 356 356 355 354 355 355 354 352 352 352 352 352 355 357 356 355 354 354 357 358 358 359 359 359 344 334 332 333 333 340 358
321 322 325 329 335 340 346 348 350 350 350 349 350 351 350 350 351 352 354 354 356 357 356 356 356 357 357 358 359 359 359 358 357 356 355 354 354 355 355 353 351 351 351 351 354 357 356 356 355 353 355 357 357 357 359 359 342 333 330 331 331 332 344
321 322 324 329 332 331 331 336 347 350 351 351 351 352 352 353 350 351 353 354 355 355 355 355 355 356 357 357 358 360 360 359 357 357 356 356 355 355 355 353 351 351 352 353 353 354 356 357 356 355 353 355 357 357 359 360 343 331 328 328 328 330 337
319 323 328 334 333 337 341 335 335 345 346 346 346 345 346 348 350 351 350 350 351 353 353 354 354 355 356 356 357 360 360 359 358 357 357 357 356 355 355 354 353 352 352 352 352 352 355 356 356 356 355 354 355 358 358 360 339 328 326 325 325 328 331
329 341 340 341 333 336 335 339 345 344 343 347 346 344 344 345 346 349 349 349 349 350 351 352 352 353 357 356 357 359 361 360 359 358 358 358 357 356 355 355 354 353 353 353 353 353 354 355 357 357 356 356 354 354 357 360 335 328 325 323 324 326 341
342 343 343 343 343 341 342 346 343 346 351 345 345 344 343 344 346 346 347 347 346 348 349 351 351 351 357 357 357 360 362 361 360 359 359 359 358 357 356 356 356 356 355 353 352 352 353 353 355 357 357 357 356 354 353 357 340 325 323 322 322 325 346
343 343 341 338 339 345 346 345 345 348 344 340 344 342 342 345 345 344 343 344 345 345 347 348 350 351 356 358 358 360 362 362 361 360 360 360 359 359 359 358 359 358 358 354 353 352 353 353 354 355 357 357 357 356 355 354 342 322 321 319 319 328 348
342 343 343 340 338 341 347 346 352 352 349 348 349 350 343 345 344 345 343 344 344 344 344 345 348 351 353 359 360 361 363 364 363 362 361 360 361 361 360 360 360 360 361 358 356 354 354 354 354 354 355 357 357 347 353 356 346 318 318 317 318 329 349
342 343 342 342 343 344 349 354 352 349 351 357 357 359 355 349 342 346 345 345 343 342 342 344 346 351 353 360 361 362 363 365 364 363 362 361 362 363 362 362 362 362 362 361 359 357 355 355 355 355 355 356 357 358 357 357 358 339 314 315 315 320 348
341 340 338 339 348 356 350 351 352 351 349 354 360 360 360 358 357 355 348 352 346 341 343 345 346 352 354 359 362 362 363 365 364 364 363 364 364 364 364 364 362 362 362 361 361 359 356 356 355 356 356 357 358 358 358 359 358 351 312 312 313 316 326
340 340 339 341 356 353 348 349 349 351 351 355 358 359 360 359 358 358 356 359 353 348 347 348 348 353 355 358 361 361 363 364 365 366 366 365 365 365 364 365 364 363 362 362 361 358 356 355 354 355 356 357 358 358 359 358 347 360 317 313 311 314 316
338 340 340 343 347 350 351 350 351 352 353 357 357 358 357 357 358 358 358 355 359 364 363 355 350 354 355 358 360 360 361 364 365 366 368 367 367 365 364 365 364 363 362 361 360 359 357 356 355 354 353 353 355 358 360 360 355 339 334 312 312 311 313
340 344 345 347 347 347 350 349 350 354 357 357 358 357 360 358 358 359 359 355 360 363 366 366 353 355 355 356 359 360 360 363 366 367 367 367 367 366 365 364 364 362 362 361 360 359 358 357 356 354 353 352 353 359 360 362 362 343 329 323 312 312 311
342 343 345 345 345 346 347 348 348 353 352 352 353 356 357 363 361 360 358 361 367 362 360 367 360 356 355 356 358 359 360 363 366 366 366 367 368 365 364 364 363 361 361 361 360 359 358 357 357 355 354 353 352 354 356 361 365 364 336 321 314 312 311
343 344 345 344 344 345 347 349 349 351 350 350 352 353 359 358 358 355 356 361 364 363 361 365 362 358 356 357 360 361 362 363 365 365 365 366 367 367 366 365 363 362 361 361 360 360 359 357 357 356 356 355 355 354 356 358 358 354 337 326 318 315 311
343 343 343 342 344 348 348 348 348 348 349 347 350 352 354 356 356 357 359 360 362 363 364 364 364 363 360 358 360 361 363 363 363 364 364 365 366 367 367 366 365 362 359 361 361 360 358 358 357 356 356 356 356 356 356 356 352 344 341 334 329 328 325
341 342 343 344 345 347 348 348 346 346 346 346 348 350 352 353 354 356 357 361 363 364 364 367 363 363 363 362 361 360 361 362 372 367 363 361 359 361 365 366 365 362 360 360 360 358 358 357 356 355 356 356 357 356 355 337 330 329 333 331 333 337 332
339 341 342 344 343 347 346 346 346 345 346 346 348 349 349 349 351 354 356 357 361 362 361 363 366 363 362 363 362 361 362 363 365 362 344 330 321 315 312 314 322 351 334 324 325 351 361 358 357 356 354 346 346 352 339 331 326 323 307 312 306 314 337
339 341 342 345 345 346 346 346 344 344 343 344 345 346 346 347 348 350 355 356 359 360 361 360 360 361 359 361 359 359 359 360 361 350 339 333 326 321 318 311 301 306 329 325 319 310 318 332 347 339 328 322 318 326 335 325 320 303 297 297 297 297 296
339 340 341 343 343 342 343 343 346 344 343 343 344 343 344 343 346 348 352 353 355 358 358 359 357 356 355 356 355 354 357 355 355 347 341 338 334 330 326 322 317 302 299 306 308 307 308 307 308 311 317 324 318 312 308 306 300 298 299 298 298 296 296
340 341 342 343 343 342 342 342 342 342 342 342 343 344 345 344 344 345 349 351 352 355 355 356 355 353 352 353 353 356 357 358 356 350 344 339 335 331 329 325 322 321 308 301 304 304 302 303 304 305 307 310 314 315 311 302 298 297 297 298 297 297 296
Wind_Speed
21 20 19 17 18 19 19 19 20 19 19 18 18 17 16 16 17 16 17 18 20 20 19 18 17 17 19 17 17 15 14 14 12 12 12 12 11 11 11 10 11 9 9 9 10 11 10 10 10 9 9 9 9 8 8 8 7 8 7 6 6 7 8
19 19 19 18 19 19 20 19 18 17 17 17 17 18 15 16 16 16 18 19 20 21 20 20 19 17 18 18 16 16 16 16 14 12 11 10 9 9 11 11 11 11 9 9 8 8 9 10 10 9 10 10 10 8 8 8 8 8 7 6 6 7 8
20 21 20 18 19 18 19 18 18 18 18 17 18 17 18 18 18 18 17 18 19 19 17 19 19 18 18 18 17 17 17 16 15 15 14 13 13 12 11 11 11 10 10 8 8 7 9 10 10 10 9 10 10 10 8 8 8 8 8 7 6 7 8
20 20 20 20 20 18 20 20 21 19 18 20 21 23 21 19 16 15 15 18 19 18 19 19 18 18 16 17 17 17 17 16 16 15 15 14 14 12 10 10 10 9 9 10 9 9 8 9 10 9 10 10 10 10 10 9 9 9 8 8 7 7 8
22 22 19 17 18 17 17 18 19 19 20 21 22 22 20 17 16 15 15 17 19 21 21 21 18 17 15 16 13 13 16 17 16 15 15 14 13 12 12 12 11 12 12 10 9 9 9 9 9 10 10 10 10 10 11 9 9 9 8 8 8 7 7
22 20 17 18 18 18 18 19 20 20 20 21 20 19 18 19 17 19 19 19 19 19 18 17 17 16 15 15 14 14 14 16 16 17 16 15 14 13 13 13 12 12 11 12 10 10 11 11 10 10 11 10 11 11 11 10 10 10 9 9 9 8 8
20 22 18 18 18 18 19 19 20 20 20 19 19 18 18 18 20 19 18 19 20 21 21 20 20 18 17 16 16 16 16 17 16 16 14 14 14 14 14 13 12 12 11 10 11 10 10 11 12 12 11 12 11 12 11 11 11 10 10 9 9 9 9
19 21 22 21 20 19 19 18 19 19 16 15 17 19 21 20 18 18 19 19 19 19 19 20 19 18 17 15 15 17 17 17 15 15 14 15 15 15 14 13 12 12 10 11 12 12 11 11 11 12 12 12 12 12 12 12 11 10 10 10 10 10 8
19 20 22 21 20 19 19 18 18 18 18 18 18 19 21 19 19 20 21 20 18 19 20 20 19 18 16 16 16 17 16 16 15 15 15 16 14 15 15 14 13 11 12 12 11 11 12 12 11 11 12 12 12 12 12 12 12 11 11 12 12 12 11
21 15 20 19 19 18 17 17 17 16 17 17 17 16 18 19 19 18 17 18 17 20 21 20 18 18 17 16 17 17 16 16 15 17 17 17 15 16 16 14 13 12 12 12 11 12 12 12 12 10 12 13 12 12 12 13 13 13 13 13 13 12 12
20 15 20 20 19 18 16 16 17 17 18 17 16 16 18 18 17 17 17 17 18 18 18 18 17 18 18 18 19 18 17 18 17 17 18 17 15 17 16 15 14 12 13 12 12 13 12 11 12 11 11 12 13 13 13 13 13 14 13 13 13 13 13
22 19 18 22 19 19 20 19 17 17 17 16 16 16 16 17 17 17 17 18 16 16 17 18 16 18 18 18 19 18 19 19 18 19 19 19 18 18 17 15 14 14 13 14 14 13 13 13 12 12 13 13 13 14 14 13 13 14 15 14 13 13 13
19 20 17 19 20 19 17 15 18 19 19 17 16 15 14 16 17 16 16 17 17 16 17 17 17 18 18 19 19 18 19 19 19 18 18 18 18 16 15 15 15 15 15 14 15 14 13 14 14 13 14 14 13 14 14 14 14 14 14 13 13 13 14
18 20 20 14 18 19 19 19 19 19 18 17 16 15 13 15 17 17 16 17 17 17 17 16 17 18 18 18 19 19 19 18 18 18 18 17 16 16 16 16 15 15 14 14 15 15 15 14 15 14 13 14 14 14 13 13 14 13 13 13 13 13 14
17 12 9 10 17 18 19 17 16 18 18 17 17 16 16 17 17 16 16 16 17 17 18 17 17 18 18 17 18 19 18 17 16 16 16 16 16 16 16 16 15 14 14 14 15 14 15 14 14 14 14 14 14 14 13 13 13 12 13 13 14 13 14
12 11 10 11 13 14 15 16 15 14 14 14 17 16 16 16 16 17 17 17 17 17 16 16 17 18 18 18 18 17 16 16 15 15 15 15 16 16 16 15 15 15 15 15 15 15 14 13 13 14 15 14 14 14 13 13 11 14 20 18 14 14 12
12 12 10 10 9 11 11 11 10 9 10 12 13 15 14 14 15 15 16 15 16 17 16 16 16 17 18 17 16 16 16 15 15 15 16 16 15 15 16 16 14 14 15 14 14 15 14 13 14 14 14 15 15 15 14 12 12 18 18 20 21 15 13
11 11 13 11 12 12 10 10 11 12 14 14 14 15 13 12 13 14 16 15 16 16 16 15 15 17 17 16 15 16 16 15 15 16 16 15 16 15 15 14 14 14 14 13 14 13 12 14 16 15 14 14 15 15 14 13 16 19 19 20 21 19 15
6 13 10 11 11 11 13 14 12 14 14 12 12 12 13 12 12 14 14 14 14 13 15 16 15 14 16 16 15 16 16 15 16 16 16 16 16 14 14 14 14 13 13 15 14 12 14 15 15 15 13 14 16 16 15 14 18 19 21 21 21 22 19
9 5 6 9 9 8 7 6 8 11 12 12 12 12 9 8 10 9 10 12 12 13 14 15 14 13 15 15 15 16 16 16 16 16 16 14 14 14 14 14 15 14 13 12 12 13 14 14 16 15 14 14 14 15 15 15 17 21 21 21 22 22 20
8 8 7 4 5 5 2 5 6 5 3 4 5 5 5 6 6 7 8 8 9 11 12 13 14 11 13 15 14 15 15 16 16 16 15 15 14 14 14 14 14 14 12 12 13 14 14 15 15 15 15 14 13 13 15 14 19 21 22 22 23 23 20
11 13 13 10 6 3 1 5 8 6 7 5 7 7 7 7 7 7 7 7 8 7 9 10 12 11 11 14 15 15 15 16 16 16 15 14 14 14 15 14 14 15 13 12 12 12 12 11 12 14 15 15 15 13 14 14 19 21 23 23 23 23 16
13 13 12 10 10 10 9 9 4 5 4 3 2 4 7 8 8 9 7 7 7 6 7 7 10 11 11 13 14 14 15 15 16 15 15 15 15 15 15 14 14 13 11 12 12 12 13 13 14 13 14 15 15 16 14 13 16 20 22 23 23 17 13
13 12 10 10 8 9 8 6 5 4 5 5 6 5 3 1 5 5 7 7 8 8 7 8 9 9 9 11 13 13 14 14 15 15 15 15 15 15 13 13 12 12 11 13 13 13 14 13 12 12 12 14 15 16 15 14 12 18 20 21 21 19 15
12 11 9 8 7 7 7 6 4 4 4 7 7 4 2 2 1 3 5 7 9 9 9 9 9 9 9 9 11 12 12 13 14 15 15 15 15 14 14 13 12 11 10 12 12 12 10 9 10 11 11 12 13 14 15 12 10 15 18 19 21 19 13
12 11 10 10 10 7 5 8 10 10 7 7 5 5 5 3 2 2 4 6 6 9 11 12 11 9 7 8 10 11 12 12 14 14 14 14 13 12 12 10 10 11 11 10 10 10 10 9 9 11 11 10 11 11 11 12 11 10 17 18 19 21 15
12 11 9 11 11 11 10 10 9 8 9 8 9 10 9 8 5 2 1 4 5 7 11 12 9 8 8 8 9 10 12 11 13 14 13 12 12 12 11 10 11 10 10 11 10 9 9 11 9 9 9 9 10 10 10 9 9 9 17 17 20 22 19
11 10 10 9 10 11 9 9 8 7 7 6 8 8 7 7 7 5 4 0 4 7 7 3 6 9 9 10 10 11 11 11 11 12 11 11 11 11 10 9 10 10 10 9 9 10 11 10 9 9 8 7 7 8 9 9 12 7 14 19 21 23 26
10 8 9 10 11 11 10 8 7 6 6 7 8 7 5 6 6 6 5 4 3 3 3 6 8 9 10 10 10 11 11 10 12 11 9 9 11 11 11 9 10 9 8 9 9 9 10 10 9 9 8 6 6 6 8 8 9 13 11 17 21 23 24
9 10 11 11 10 10 9 8 9 4 6 8 5 4 5 4 5 5 5 5 6 3 4 1 6 8 10 10 10 11 10 10 11 11 10 10 10 10 10 9 9 8 8 9 9 9 9 9 8 8 9 9 7 5 5 6 7 11 16 16 22 22 24
9 10 10 9 10 9 9 9 9 4 7 8 9 5 3 5 5 4 4 6 5 4 4 2 4 5 7 8 8 10 9 9 10 10 9 9 10 10 9 8 8 8 7 8 8 8 9 8 7 8 9 8 8 6 4 4 6 5 11 18 20 22 22
11 8 8 7 6 7 7 10 8 5 7 7 8 10 6 8 6 7 7 5 5 5 5 2 3 5 6 6 7 8 9 9 9 9 9 9 9 9 8 9 9 9 7 8 8 9 9 7 7 8 8 7 7 7 6 5 3 3 4 3 3 4 7
11 8 5 6 5 5 7 7 8 7 7 8 8 8 8 9 8 8 9 8 8 4 4 3 3 4 5 6 7 7 8 9 8 7 7 7 7 7 7 8 8 8 8 8 9 8 7 7 7 7 7 7 7 6 6 3 4 5 4 4 4 3 5
9 10 6 5 4 6 5 5 5 6 7 7 7 7 8 8 8 9 9 9 9 7 4 4 3 4 5 6 6 7 7 8 9 9 6 4 4 4 3 6 8 8 8 9 8 7 7 7 7 7 7 7 7 7 5 6 4 4 4 3 2 4 4
9 9 8 6 4 3 4 4 4 4 5 5 4 5 5 7 8 9 9 8 8 8 5 3 3 3 4 5 6 6 6 7 8 7 9 9 9 9 7 5 5 2 5 5 2 4 7 7 7 6 3 4 2 4 6 4 4 2 1 1 1 3 2
9 10 9 5 3 3 4 3 3 3 3 3 3 3 4 5 6 7 7 8 8 8 5 1 3 3 4 2 2 4 5 6 7 9 9 9 9 9 9 12 14 11 5 3 8 5 4 7 4 7 9 10 5 3 6 6 4 4 6 5 5 7 8
8 8 7 4 3 3 3 2 1 0 1 1 1 2 3 4 4 6 6 7 7 6 5 5 6 5 5 5 5 0 5 5 7 9 8 9 10 10 10 9 12 16 16 11 8 10 18 19 17 13 12 15 10 9 15 13 10 9 7 8 8 9 9
9 6 7 8 2 1 1 1 1 1 1 1 1 0 0 0 1 3 4 5 6 6 5 5 5 5 4 4 3 4 5 4 8 10 9 7 8 9 10 11 11 10 15 16 15 16 18 19 19 18 18 19 19 12 5 4 6 8 8 8 9 10 11
Wind_Direction
167 169 172 171 174 176 178 180 178 178 179 181 183 183 179 178 177 175 178 179 184 185 185 184 188 188 190 190 190 190 190 189 189 189 191 195 194 189 189 190 192 191 188 184 187 189 190 187 188 185 185 186 185 185 188 187 185 188 187 184 176 175 177
167 172 172 174 175 176 177 179 178 177 179 180 182 182 182 182 178 178 180 181 184 186 185 186 188 192 192 192 190 189 190 191 191 192 194 197 197 194 190 189 190 192 190 190 181 185 181 188 186 183 185 186 189 185 183 187 185 184 187 189 174 175 175
169 173 175 174 175 176 173 175 179 181 179 179 181 184 188 186 183 181 176 179 182 186 187 190 193 193 195 194 191 192 191 190 191 193 194 196 196 195 192 190 192 192 193 187 183 179 183 185 186 185 182 186 189 188 185 184 186 183 186 187 180 173 179
167 171 172 173 175 172 172 176 181 182 183 182 184 188 189 186 183 178 178 179 181 184 188 193 194 196 196 197 197 195 193 192 193 194 197 197 197 196 190 190 191 190 191 194 189 186 183 181 186 187 185 185 189 190 188 187 187 185 183 181 186 179 182
171 170 166 163 168 170 174 180 182 182 185 186 189 188 186 182 177 180 179 180 182 187 191 191 193 197 198 198 198 197 195 194 195 197 199 199 197 194 196 193 190 191 193 191 187 186 187 186 186 186 191 187 188 188 191 188 187 186 183 180 186 186 183
172 168 166 167 171 174 178 180 180 183 183 186 185 185 184 183 183 182 181 179 185 188 189 190 194 195 198 200 200 201 200 200 199 197 197 197 193 195 199 199 193 191 188 192 189 188 186 190 191 188 189 190 189 189 190 191 189 186 186 184 189 187 190
165 170 170 173 172 175 180 180 182 185 184 182 180 180 181 185 188 186 180 182 183 185 188 190 193 193 199 197 201 200 200 202 202 202 199 197 195 197 200 200 197 194 192 185 193 187 186 190 193 192 190 189 190 190 191 191 191 188 186 188 192 192 192
166 168 175 176 175 175 178 179 183 185 182 180 179 177 182 185 184 182 186 186 185 186 188 191 193 195 196 198 201 202 202 203 202 201 198 197 196 199 200 200 198 196 190 189 193 191 192 190 192 192 191 189 191 191 191 191 192 190 187 191 192 195 192
174 167 175 176 174 176 176 176 180 179 178 180 180 179 181 180 182 186 187 184 185 186 190 190 193 194 194 196 200 204 204 202 202 200 200 200 199 202 201 199 199 194 193 195 192 192 196 196 192 191 191 193 191 191 191 191 192 191 190 194 194 194 196
173 164 176 174 175 177 177 177 173 171 178 182 183 183 183 184 184 185 184 185 184 189 189 189 191 192 193 196 200 202 201 202 202 201 201 201 201 202 202 199 198 194 196 196 194 193 197 196 196 189 191 195 194 193 192 191 193 194 194 195 195 195 196
167 161 164 175 176 176 175 171 169 176 181 183 182 184 186 187 185 184 184 184 187 190 190 191 190 192 194 195 198 199 200 201 201 201 202 203 203 204 202 199 197 195 197 195 197 197 195 196 195 194 191 195 197 197 197 195 194 195 197 198 197 196 196
166 164 165 172 175 173 173 173 174 176 181 181 182 182 180 183 186 184 184 187 185 185 189 192 191 194 196 197 198 199 200 201 199 200 201 202 203 203 202 199 198 195 196 196 198 197 196 195 195 196 198 198 198 198 200 198 197 198 199 198 196 197 199
160 170 168 168 173 172 168 167 168 175 178 179 180 179 177 182 185 186 185 185 186 185 186 189 192 194 196 197 199 200 201 200 200 200 201 201 202 201 200 201 199 196 196 195 198 197 197 197 197 198 199 201 199 200 200 200 201 201 200 199 197 197 199
163 171 176 158 169 166 169 171 169 172 175 177 178 179 181 183 184 186 185 186 188 187 186 188 191 193 196 197 199 201 201 201 200 201 201 200 200 200 201 200 200 199 195 193 198 200 200 198 198 198 199 202 203 203 201 201 203 202 201 200 199 198 201
162 152 145 138 163 164 168 167 170 172 174 176 176 178 181 183 185 186 187 188 188 190 190 187 189 192 195 196 199 201 200 199 200 201 200 199 198 200 201 200 199 197 195 194 198 200 202 201 197 197 200 203 204 205 204 204 205 203 200 200 202 201 202
114 115 126 144 154 163 166 170 170 173 173 175 178 182 181 183 183 185 187 189 189 191 191 186 190 191 194 197 198 197 197 197 198 198 198 198 199 201 201 200 198 198 198 197 198 199 200 201 198 200 200 201 204 205 207 209 207 204 199 198 200 202 203
103 102 112 129 130 148 156 155 153 155 167 178 182 185 183 182 183 185 188 189 190 192 192 189 190 192 195 197 193 192 193 194 197 196 198 198 199 199 200 201 198 198 199 198 196 197 197 198 202 204 200 201 202 205 208 210 209 201 198 199 200 201 204
117 124 128 132 138 142 150 150 155 166 176 185 187 186 186 180 180 184 190 190 192 192 192 194 193 193 194 194 189 189 190 193 194 197 198 197 199 198 200 200 199 199 198 198 197 197 193 198 204 205 200 201 205 207 208 210 208 198 197 198 200 201 205
132 128 126 136 142 146 153 163 169 172 176 182 186 187 191 181 177 185 190 190 192 187 193 199 196 193 194 193 188 187 188 189 192 196 197 199 199 198 198 199 201 201 198 200 198 191 195 201 202 205 203 201 204 208 208 212 204 197 196 197 199 202 205
59 63 107 111 115 125 137 145 162 170 174 179 184 184 178 177 181 184 184 186 187 188 193 198 199 191 193 193 191 188 186 188 191 193 196 196 198 198 197 198 202 202 200 199 195 196 200 201 203 205 206 204 204 208 210 211 203 196 196 197 198 202 203
77 65 56 90 123 113 121 162 158 138 122 148 159 154 154 173 172 173 181 173 180 192 191 194 199 193 189 193 192 187 187 188 188 191 192 193 194 195 198 199 203 203 202 198 198 199 201 201 204 207 207 208 207 207 212 214 202 194 196 196 197 201 201
58 63 60 51 51 19 138 167 154 158 173 178 162 177 177 188 183 167 184 185 176 184 192 191 196 192 185 191 192 190 187 186 188 189 189 190 191 194 198 198 200 202 201 202 204 206 206 208 207 207 209 211 211 211 214 216 200 195 195 196 198 197 201
54 57 58 48 53 60 46 23 50 124 116 98 181 192 196 191 181 184 180 184 191 178 185 189 196 195 185 190 190 189 186 187 187 188 188 188 191 196 197 197 200 203 199 205 207 205 206 208 208 209 209 210 212 216 219 217 204 194 195 195 195 189 204
51 46 44 45 39 43 40 33 19 25 73 90 95 100 86 140 189 186 187 191 192 186 193 192 205 197 183 187 188 187 186 186 186 186 188 189 193 194 196 197 199 200 196 204 207 210 210 209 213 214 212 211 214 215 220 222 203 192 195 193 188 189 200
45 42 31 38 43 35 21 14 15 350 27 49 38 25 103 112 122 191 206 205 194 193 197 207 207 194 190 186 182 183 182 185 186 187 188 191 192 191 193 196 197 196 194 204 209 215 215 211 214 217 218 218 219 219 222 228 212 183 190 189 187 191 203
40 35 25 13 8 8 20 29 28 20 26 40 16 4 12 56 120 179 207 219 218 197 202 210 208 194 182 173 179 181 182 183 185 187 189 190 189 191 192 189 190 193 195 201 205 212 215 214 215 217 219 218 219 219 218 222 224 184 180 182 189 193 199
31 24 17 12 19 24 33 23 19 12 7 22 24 17 3 358 19 37 224 223 203 222 216 212 193 172 176 173 173 180 182 181 183 185 188 186 186 186 187 187 191 189 194 199 202 208 212 219 220 220 221 216 216 222 218 217 219 191 168 179 183 193 201
23 16 3 5 32 31 24 17 2 3 15 36 20 8 360 3 5 353 357 340 240 240 246 239 182 175 170 172 176 178 180 181 180 181 182 181 178 182 186 186 185 188 192 194 199 205 211 216 221 225 224 216 213 215 217 213 204 195 174 177 186 191 199
21 11 3 20 30 20 18 7 352 13 5 11 9 356 348 353 343 335 337 328 276 281 268 196 183 180 175 173 173 177 177 176 173 174 177 177 177 178 182 180 184 187 187 191 197 203 208 213 215 222 228 225 222 213 209 208 204 197 176 185 187 194 198
21 14 32 38 22 18 2 7 338 1 35 19 348 340 337 337 319 311 320 313 310 327 356 195 189 177 173 175 175 173 173 171 170 172 173 172 172 177 177 181 183 184 188 188 195 200 208 211 210 217 223 228 231 225 213 206 202 201 186 187 195 196 197
22 27 25 28 18 3 2 360 339 48 45 20 358 328 334 11 19 4 6 327 324 350 10 357 158 167 174 172 170 168 167 163 165 168 168 166 169 173 177 182 179 188 186 184 192 197 203 203 198 208 215 220 222 217 215 187 195 200 194 193 198 199 200
2 22 22 20 7 360 5 1 350 39 45 26 16 9 13 14 18 15 330 313 338 1 358 26 136 155 164 159 157 161 157 158 159 163 164 161 167 169 175 178 184 188 183 186 195 197 199 195 192 200 201 205 209 209 207 203 187 104 60 71 109 199 234
354 354 3 350 347 10 15 17 11 21 32 27 18 14 13 13 9 2 347 344 336 350 14 32 105 130 140 147 150 149 153 156 159 158 160 156 156 162 173 182 186 186 183 189 196 198 195 186 182 187 186 195 197 188 191 165 72 74 91 103 134 149 170
344 332 332 338 5 357 21 31 32 26 29 25 16 14 10 8 3 355 350 349 350 343 12 12 57 108 131 139 145 147 148 154 152 149 143 112 109 132 167 185 182 181 185 188 192 186 187 180 179 175 182 190 186 190 162 85 71 56 76 63 87 134 147
329 318 318 343 337 350 46 32 32 21 29 18 5 20 17 4 354 347 346 343 339 337 347 358 25 71 97 119 128 143 140 135 147 135 110 98 84 71 56 24 338 38 71 13 337 192 174 175 173 170 122 100 92 141 108 108 106 162 2 292 352 31 98
320 317 316 305 324 49 38 41 32 25 22 14 16 26 21 11 354 342 343 349 345 345 331 331 29 44 39 34 97 141 137 131 134 113 120 115 112 101 75 55 53 30 55 57 358 358 102 128 136 136 120 97 35 19 136 143 153 124 129 128 104 81 75
314 313 313 326 42 11 69 23 19 349 44 26 42 44 31 18 350 338 347 357 351 352 15 52 71 61 50 53 36 51 157 154 128 122 121 121 115 108 102 86 49 43 41 47 38 68 83 87 90 93 110 115 106 54 73 102 119 134 124 104 88 87 88
300 306 310 313 278 69 10 53 335 330 340 315 305 324 260 308 338 340 343 2 351 359 13 33 68 77 70 64 47 61 94 97 123 128 119 111 112 114 118 107 97 54 36 36 54 64 77 88 92 93 96 107 118 121 60 82 127 137 124 106 99 92 91